Saginaw, MI

1:44 AM EDT on June 23, 2017 (GMT -0400)
MBS International

Weather History for KMBS - December, 2012

Change the Weather History Date:

Tuesday, December 25, 2012

  Actual Average Record
Temperature  
Mean Temperature 28 °F 25 °F  
Max Temperature 32 °F 31 °F 47 °F (2015)
Min Temperature 25 °F 19 °F -2 °F (2000)
Degree Days  
Heating Degree Days 36    
Month to date heating degree days  
Since 1 July heating degree days  
Cooling Degree Days 0    
Month to date cooling degree days  
Year to date cooling degree days  
Moisture  
Dew Point 18 °F    
Average Humidity 67    
Maximum Humidity 78    
Minimum Humidity 52    
Precipitation  
Precipitation 0.00 in 0.06 in 0.21 in (2005)
Month to date precipitation 1.52  
Year to date precipitation 31.20  
Snow  
Snow 0.00 in - - ()
Month to date snowfall  
Since 1 July snowfall  
Snow Depth -    
Sea Level Pressure  
Sea Level Pressure 30.27 in    
Wind  
Wind Speed 10 mph (North)    
Max Wind Speed 14 mph    
Max Gust Speed -    
Visibility 10 miles    
Events      
T = Trace of Precipitation, MM = Missing Value Source: NWS Daily Summary

Daily Weather History Graph

Daily Weather History Graph

Search for Another Location

Airport or City:

Trip Planner

Search our weather history database for the weather conditions in past years. The results will help you decide how hot, cold, wet, or windy it might be!

Date:

Astronomy

Dec. 25, 2012 Rise Set
Actual Time 8:08 AM EST 5:05 PM EST
Civil Twilight 7:35 AM EST 5:38 PM EST
Nautical Twilight 6:59 AM EST 6:14 PM EST
Astronomical Twilight 6:24 AM EST 6:49 PM EST
Moon 3:14 PM EST (12/25) 5:38 AM EST (12/25)
Length of Visible Light 10h 02m
Length of Day
8h 57m
Waxing Gibbous, 93% of the Moon is Illuminated
Dec 25
Waxing Gibbous
Dec 28
Full
Jan 4
Last Quarter
Jan 11
New
Jan 18
First Quarter

Hourly Weather History & Observations

Time (EST) Temp. Windchill Dew Point Humidity Pressure Visibility Wind Dir Wind Speed Gust Speed Precip Events Conditions
12:53 AM 27.0 °F 17.3 °F 19.9 °F 75% 30.06 in 10.0 mi NNW 10.4 mph - N/A   Overcast
1:45 AM 26.6 °F 17.5 °F 19.4 °F 74% 30.05 in 10.0 mi NNW 9.2 mph - N/A   Overcast
1:53 AM 27.0 °F 18.0 °F 21.0 °F 78% 30.08 in 10.0 mi NNW 9.2 mph - N/A   Overcast
2:53 AM 27.0 °F 16.7 °F 21.0 °F 78% 30.12 in 10.0 mi NNW 11.5 mph - N/A   Overcast
3:53 AM 27.0 °F 18.0 °F 21.0 °F 78% 30.14 in 10.0 mi North 9.2 mph - N/A   Overcast
4:53 AM 27.0 °F 17.3 °F 19.9 °F 75% 30.17 in 10.0 mi North 10.4 mph - N/A   Overcast
5:53 AM 27.0 °F 18.0 °F 19.9 °F 75% 30.21 in 10.0 mi North 9.2 mph - N/A   Overcast
6:53 AM 26.1 °F 15.6 °F 19.0 °F 75% 30.24 in 10.0 mi North 11.5 mph - N/A   Overcast
7:53 AM 26.1 °F 15.6 °F 17.1 °F 69% 30.27 in 10.0 mi North 11.5 mph - N/A   Overcast
8:53 AM 26.1 °F 15.6 °F 17.1 °F 69% 30.28 in 10.0 mi North 11.5 mph - N/A   Overcast
9:53 AM 27.0 °F 17.3 °F 17.1 °F 66% 30.30 in 10.0 mi NNE 10.4 mph - N/A   Overcast
10:53 AM 28.0 °F 17.0 °F 17.1 °F 63% 30.32 in 10.0 mi NNE 13.8 mph - N/A   Overcast
11:53 AM 30.9 °F 21.2 °F 17.1 °F 57% 30.30 in 10.0 mi NNE 12.7 mph - N/A   Partly Cloudy
12:53 PM 30.9 °F 23.5 °F 16.0 °F 54% 30.31 in 10.0 mi North 8.1 mph - N/A   Clear
1:53 PM 32.0 °F 26.4 °F 17.1 °F 54% 30.31 in 10.0 mi North 5.8 mph - N/A   Clear
2:53 PM 32.0 °F 24.8 °F 16.0 °F 52% 30.34 in 10.0 mi North 8.1 mph - N/A   Overcast
3:53 PM 32.0 °F 24.2 °F 16.0 °F 52% 30.32 in 10.0 mi North 9.2 mph - N/A   Clear
4:53 PM 28.9 °F 22.8 °F 16.0 °F 58% 30.34 in 10.0 mi North 5.8 mph - N/A   Clear
5:53 PM 27.0 °F 19.5 °F 17.1 °F 66% 30.33 in 10.0 mi North 6.9 mph - N/A   Clear
6:53 PM 25.0 °F 18.1 °F 16.0 °F 69% 30.37 in 10.0 mi North 5.8 mph - N/A   Clear
7:53 PM 26.1 °F 18.4 °F 18.0 °F 71% 30.38 in 10.0 mi North 6.9 mph - N/A   Overcast
8:53 PM 26.1 °F 16.8 °F 17.1 °F 69% 30.38 in 10.0 mi North 9.2 mph - N/A   Overcast
9:53 PM 26.1 °F 16.8 °F 17.1 °F 69% 30.38 in 10.0 mi North 9.2 mph - N/A   Overcast
10:53 PM 27.0 °F 17.3 °F 18.0 °F 69% 30.35 in 10.0 mi North 10.4 mph - N/A   Overcast
11:53 PM 28.0 °F 18.6 °F 19.0 °F 69% 30.34 in 10.0 mi NNE 10.4 mph - N/A   Overcast